Zurück zum Katalog

STARLINK-2410

AktivKommunikationVLEO
NORAD 47825·PAYLOAD·🇺🇸 United States

Gestartet Mar 11, 2021 von Cape Canaveral Space Force Station

Loading…

Nächste Überflüge (nächste 24 Stunden)

TLE

AktuellSource: CelesTrak SupGP

Epoche: Sep 15, 2026, 02:05 UTC

1 47825C 21018AQ  26258.08729167 -.00014701  00000+0 -47279-3 0  2585
2 47825  53.1582  81.4224 0001377  73.1074 212.5785 15.31706440    15

Verfolge STARLINK-2410 in Echtzeit mit AllMySat

Download on the App Store